Weather in Mochalishche

Russia / Mari El Republic     56°20′01″N   48°21′22″E
temp.,
°C
wind,
m/s
gust,
m/s
humid.,
%
clouds,
%
prec.,
mm/h
press.,
hPa
HPBL,
m
3 march, wed
wed300:00−6w379753 0.0 1000138
03:00−3w499674 0.1 1000392
06:00−4nw51095100 0.6 1000626
09:00−5nw51093100 0.8 1002698
12:00−3nw6990100 0.4 1003756
15:00−4nw5989100 0.5 1004780
18:00−6wnw4992100 0.1 1005693
21:00−6wnw4991100 0.3 1005687
4 march, thu
thu400:00−8sw489599 0.1 1003276
03:00−6wsw4119599 0.8 1001538
06:00−4sw41194100 0.4 998523
09:00−2wsw61195100 1.3 995787
12:00−1sw61197100 1.4 992831
15:00+1w71479100 4.2 9901297
18:00−3w7148561 0.1 992939
21:00−5w5139274 0.1 996555
5 march, fri
fri500:00−6wnw3896100 0.1 998304
03:00−11nw239795 0.2 100022
06:00−11n2396100 0.0 100159
09:00−11n3588100 0.0 1003242
12:00−7n358233 0.0 1004515
15:00−6nw248317 0.0 1006619
18:00−11wsw229216 0.0 100821
21:00−13wsw339538 0.0 101058
6 march, sat
sat600:00−13sw249694 0.1 101080
03:00−13ssw259694 0.1 1011102
06:00−13ssw239795 0.2 101047
09:00−10sw239497 0.3 1010243
12:00−6wnw2389100 0.4 1010500
15:00−7nw4688100 0.8 1010637
18:00−14nnw359487 0.0 1010101
21:00−18nw239564 0.1 101136
7 march, sun
sun700:00−19wnw2310059 0.0 101140
03:00−21w2310075 0.1 101125
06:00−22wsw2210093 0.0 101120
09:00−17ssw359689 0.1 1009216
12:00−12s589391 0.0 1006443
15:00−10s7129295 0.2 1003749
18:00−9s61294100 1.4 999988
21:00−8s71394100 2.6 995874